Location: Pardubice
(50.0330°N, 15.7830°E)
Time: 10:12:23
(UTC+02:00)

Vanguard 2 - All Passes

Search period start: 07 October 2024 00:00
Search period end: 17 October 2024 00:00
Orbit: 552 x 2910 km, 32.9° (Epoch: 06 October)

Date Brightness Start Highest point End Pass type
(mag) Time Alt. Az. Time Alt. Az. Time Alt. Az.
07 Oct - 19:06:50 10° S 19:10:34 12° SSE 19:13:52 10° SE visible
07 Oct - 21:12:18 10° SW 21:18:41 19° S 21:23:27 10° SE visible
07 Oct - 23:21:42 10° SW 23:26:03 16° SSW 23:29:29 10° SSE visible
08 Oct - 19:17:48 10° SSW 19:24:09 16° SSE 19:29:13 10° SE visible
08 Oct - 21:25:14 10° SW 21:32:14 21° S 21:37:20 10° SE visible
08 Oct - 23:35:22 10° SW 23:39:29 16° SSW 23:42:48 10° SSE visible
09 Oct - 19:29:46 10° SSW 19:37:43 19° SSE 19:43:44 10° SE visible
09 Oct - 21:38:23 10° SW 21:45:47 23° S 21:51:04 10° SE visible
09 Oct - 23:49:16 10° SW 23:52:52 14° SSW 23:55:51 10° S visible
10 Oct - 17:37:29 10° S 17:42:40 13° SSE 17:47:13 10° SE daylight
10 Oct - 19:42:13 10° SSW 19:51:16 23° S 19:57:52 10° ESE visible
10 Oct - 21:51:42 10° SW 21:59:17 23° S 22:04:39 10° SE visible
11 Oct - 00:03:29 10° SW 00:06:11 12° SSW 00:08:32 10° S visible
11 Oct - 17:48:07 10° S 17:56:09 17° SSE 18:02:42 10° ESE daylight
11 Oct - 19:54:58 10° SW 20:04:49 26° S 20:11:46 10° ESE visible
11 Oct - 22:05:09 10° WSW 22:12:44 23° SSW 22:18:06 10° SE visible
12 Oct - 17:59:46 10° SSW 18:09:38 21° SSE 18:17:18 10° ESE daylight
12 Oct - 20:07:57 10° SW 20:18:20 28° S 20:25:31 10° ESE visible
12 Oct - 22:18:44 10° WSW 22:26:08 22° SSW 22:31:27 10° SSE visible
13 Oct - 16:09:14 10° SSE 16:14:13 12° SE 16:18:47 10° SE daylight
13 Oct - 18:11:57 10° SSW 18:23:07 25° SSE 18:31:31 10° ESE daylight
13 Oct - 20:21:07 10° SW 20:31:50 30° S 20:39:10 10° SE visible
13 Oct - 22:32:26 10° WSW 22:39:29 21° SSW 22:44:38 10° SSE visible
14 Oct - 16:19:01 10° S 16:27:33 16° SSE 16:34:57 10° ESE daylight
14 Oct - 18:24:30 10° SW 18:36:35 28° SSE 18:45:29 10° ESE visible
14 Oct - 20:34:25 10° WSW 20:45:17 30° S 20:52:42 10° SE visible
14 Oct - 22:46:19 10° WSW 22:52:45 19° SSW 22:57:36 10° SSE visible
15 Oct - 16:30:13 10° S 16:40:54 21° SSE 16:49:51 10° ESE daylight
15 Oct - 18:37:17 10° SW 18:50:04 31° S 18:59:18 10° ESE visible
15 Oct - 20:47:50 10° WSW 20:58:43 30° SSW 21:06:09 10° SE visible
15 Oct - 23:00:26 10° WSW 23:05:57 16° SW 23:10:17 10° S visible
16 Oct - 16:42:04 10° SSW 16:54:15 25° SSE 17:04:14 10° ESE daylight
16 Oct - 18:50:17 10° SW 19:03:32 34° S 19:12:59 10° ESE visible
16 Oct - 21:01:21 10° WSW 21:12:05 29° SSW 21:19:28 10° SE visible
16 Oct - 23:15:02 10° WSW 23:19:03 13° SW 23:22:27 10° SSW visible
